Rbgn^[z[y[W
メイン
   新天体発見情報
     Comet C/2021 E3 (ZTF)
投稿するにはまず登録を

スレッド表示 | 新しいものから 前のトピック | 次のトピック | 下へ
投稿者 スレッド
佐藤裕久
投稿日時: 2021-5-19 20:47
モデレータ
登録日: 2005-6-12
居住地: 日本
投稿: 2687
オンライン
Comet C/2021 E3 (ZTF)

3月9.5日UT、"Zwicky Transient Facility" (ZTF)と呼ばれるサーベイで、Palomarにある1.2-m 
Schmidt望遠鏡で得たCCD画像から小惑星状天体が発見された。
小惑星センターのPCCP webpageに公表後、E. Guido (Castellammare di Stabia, イタリア、
3月19.2日UT, 1200秒露出14枚のスタック, "Telescope Live" の0.7-m f/8 Ritchey-Chretien 
反射望遠鏡, Oria, スペイン, 遠隔操作:光度19.1-19.4.等のこじんまりした約7"のコマが見えた)
らCCD位置観測者によって彗星状と観測された。

他の彗星機能の報告は次の通り:

OC   Date        Reporter           Coma    Tail    PA          Exposures
B96  2021-04-17  E. Bryssinck       8"      7"     335           30x120s
N51  2021-04-18  K. Sharma          3"      5"      97              300s

発見位置は次のとおり、

     2021 UT             R.A. (2000) Decl.       Mag.
     Mar.  9.52861   20 45 47.31   +30 53 11.2   19.6
           9.53355   20 45 47.45   +30 53 12.1   19.7
           9.53602   20 45 47.52   +30 53 12.6   19.5
           9.53850   20 45 47.62   +30 53 13.0   19.5

MPCの双曲線軌道要素、位置推算表は次のとおり、

Orbital elements:
    C/2021 E3 (ZTF)                                                             
Epoch 2022 June 30.0 TT = JDT 2459760.5                                         
T 2022 June 11.81547 TT                                 Rudenko                 
q   1.7774738            (2000.0)            P               Q                  
z  -0.0005034      Peri.  228.83874     -0.11527430     -0.43249398             
 +/-0.0002234      Node   104.46190     -0.37434517     +0.85277984             
e   1.0008948      Incl.  112.55681     -0.92009648     -0.29277209             
From 88 observations 2021 Mar. 9-May 5, mean residual 0".5.                     
                                                                                
    C/2021 E3 (ZTF)                                                             
Epoch 2020 Dec. 17.0 TT = JDT 2459200.5                                         
T 2022 June 11.94298 TT                                 Rudenko                 
q   1.7774210            (2000.0)            P               Q                  
z  -0.0001769      Peri.  228.85055     -0.11571254     -0.43246946             
 +/-0.0002234      Node   104.44827     -0.37421775     +0.85288711             
e   1.0003144      Incl.  112.57216     -0.92009330     -0.29249572             
From 88 observations 2021 Mar. 9-May 5, mean residual 0".5.                     
                                                                                
Ephemeris:
Date    TT    R. A. (2000) Decl.     Delta      r    Elong.  Phase   m1
2021 04 06    20 57 30.8 +32 29 03   5.4936  5.0977    61.8    10.0  19.3
...
2021 04 21    21 00 55.0 +33 40 32   5.2229  4.9668    69.8    10.9  19.1
...
2021 04 29    21 01 33.9 +34 22 00   5.0688  4.8967    74.5    11.4  18.9
...
2021 05 05    21 01 26.1 +34 53 54   4.9499  4.8440    78.1    11.8  18.8
2021 05 06    21 01 21.5 +34 59 15   4.9298  4.8352    78.7    11.8  18.8
2021 05 07    21 01 15.8 +35 04 36   4.9097  4.8263    79.4    11.9  18.8
...
2021 05 13    21 00 20.2 +35 36 35   4.7881  4.7734    83.1    12.1  18.7
...
2021 05 21    20 58 04.2 +36 18 03   4.6241  4.7027    88.2    12.4  18.5
...
2021 06 05    20 50 17.2 +37 26 15   4.3176  4.5696    97.9    12.7  18.3

(MPEC 2021-J71、CBET 4960)

スレッド表示 | 新しいものから 前のトピック | 次のトピック | トップ

投稿するにはまず登録を
 
© 1999 Tsutomu Seki.